Theta_e
344 349 347 342 323 317 310 311 313 312 311 314 316 316 316 319 317 312 338 345 348 350 350 349 349 348 348 348 347 346 344 342 343 344 346 347 347 349 348 347 350 350 349 348 348 348 348 347 347
341 342 343 332 316 309 310 312 312 314 315 319 318 318 316 318 330 333 339 347 350 350 348 345 348 348 348 347 345 343 341 340 340 341 341 343 344 345 344 343 343 343 342 341 343 344 345 345 346
338 340 333 325 315 310 311 312 315 315 318 316 318 319 318 320 332 337 343 349 350 348 345 345 347 347 346 346 345 343 342 341 342 343 342 341 342 342 342 343 344 344 344 344 345 345 345 346 347
336 333 327 319 313 317 316 315 316 313 315 316 320 315 323 330 335 340 347 349 348 346 346 349 347 346 345 346 345 343 342 343 345 346 346 346 346 345 347 346 346 346 345 345 346 344 341 342 346
331 328 317 313 313 318 319 318 315 313 315 318 318 315 318 331 340 345 347 347 346 345 346 346 348 346 345 345 345 346 344 344 345 345 347 348 349 349 348 345 345 341 341 344 340 338 336 338 343
321 323 313 310 312 317 319 319 316 314 316 318 318 318 322 334 340 344 346 346 347 345 346 346 348 348 348 347 347 348 347 347 348 348 348 349 348 345 341 339 339 337 337 338 337 335 334 334 342
316 317 311 312 312 313 317 318 314 314 316 318 321 316 320 333 341 345 346 347 346 345 346 348 345 348 350 350 349 349 349 350 349 349 348 346 340 337 336 336 335 335 333 333 333 332 331 330 331
319 319 311 312 311 313 317 315 317 316 315 321 323 316 318 331 342 345 345 344 345 345 346 346 346 346 346 349 352 351 350 349 349 346 340 336 336 335 334 333 332 331 330 329 327 326 327 327 326
323 312 308 311 313 316 315 315 316 318 318 320 323 321 323 336 342 341 340 340 342 343 345 346 346 346 348 350 349 350 349 348 342 338 331 326 325 328 328 330 329 328 327 326 324 322 319 317 319
317 310 310 317 319 317 316 315 314 314 316 316 320 322 332 338 338 335 334 335 336 339 342 345 346 346 348 347 347 347 342 333 328 321 319 320 323 324 324 326 326 325 324 322 320 318 315 311 308
313 309 314 317 319 318 316 313 315 313 312 318 319 321 332 335 335 334 335 336 336 339 341 344 347 348 348 345 343 341 336 326 317 316 316 315 313 312 311 310 310 311 312 308 309 308 308 307 307
307 313 315 317 319 316 314 314 309 314 319 312 321 326 332 333 333 334 335 336 337 338 340 344 345 345 346 339 337 332 330 322 315 315 309 308 308 307 307 307 308 308 308 308 308 307 307 307 306
308 312 315 318 315 313 313 310 310 311 316 317 322 328 331 332 333 335 337 338 337 336 339 341 341 343 342 332 325 317 327 323 314 312 308 308 308 307 307 307 308 308 308 308 308 307 307 307 306
309 312 314 317 313 314 311 309 309 309 314 318 320 322 329 331 332 334 335 335 336 337 337 340 339 340 336 328 318 314 316 317 311 310 308 307 308 307 308 307 307 307 308 307 307 307 306 306 306
309 306 311 314 313 312 312 307 307 312 313 318 318 319 323 329 332 331 334 335 337 337 339 338 337 337 331 321 314 310 309 308 308 309 307 307 308 308 308 307 307 307 307 306 306 306 306 306 306
305 307 301 310 310 310 312 307 309 313 316 317 318 318 319 322 328 331 334 336 337 337 338 339 337 332 327 319 310 308 307 308 308 307 307 307 307 308 308 308 308 307 308 308 307 307 306 305 305
301 296 300 303 309 307 309 305 308 313 313 316 318 319 320 321 322 325 330 335 336 337 338 336 333 328 322 313 310 306 306 307 307 307 307 307 308 307 308 308 308 308 308 308 308 306 306 306 305
294 297 299 301 304 306 305 305 308 312 311 313 316 318 320 320 322 325 326 333 336 338 338 334 329 322 313 310 305 305 305 306 306 307 308 307 308 307 308 308 308 307 307 307 307 306 306 305 304
299 299 299 301 305 305 304 305 307 311 313 311 311 313 315 319 320 321 328 332 335 334 331 327 321 314 309 304 304 304 305 305 305 307 307 308 308 308 308 308 307 307 307 307 306 306 304 304 303
294 295 298 303 304 304 303 304 308 310 311 313 312 310 310 309 314 321 324 328 329 329 326 321 320 311 309 306 305 306 305 305 307 307 306 307 308 308 307 308 307 306 306 305 305 305 304 304 303
294 294 298 300 302 303 302 301 304 308 310 312 313 314 314 314 309 315 317 320 323 323 319 318 313 310 308 305 304 304 305 305 305 305 306 306 306 307 307 307 307 306 306 305 304 303 303 303 302
293 302 302 300 300 295 300 293 300 303 305 306 309 305 309 307 307 313 315 312 314 318 315 313 311 307 305 305 306 306 306 305 307 307 307 307 306 306 306 305 305 305 304 304 303 303 303 302 301
297 304 302 300 298 297 295 296 299 295 297 301 302 301 303 303 305 310 312 310 310 309 310 311 307 304 305 305 307 307 305 305 306 306 305 306 306 305 304 304 304 303 303 303 302 302 301 302 301
302 300 298 296 296 291 296 296 296 296 298 297 298 300 301 301 301 305 307 304 304 306 306 305 304 303 304 304 304 305 305 305 305 306 306 306 305 304 303 303 303 303 302 302 302 301 300 300 299
301 298 289 288 289 288 291 293 298 296 295 297 298 299 299 299 301 300 301 301 301 303 303 303 303 301 302 303 303 304 305 304 305 305 306 304 303 302 301 301 301 301 301 301 301 300 299 299 298
297 297 289 283 286 289 291 289 296 295 296 296 297 298 297 298 298 299 300 301 302 302 301 301 301 300 301 302 302 303 304 304 304 303 303 301 301 301 300 300 300 299 298 299 298 298 298 297 296
295 293 297 287 285 286 289 291 293 294 294 294 295 296 296 296 297 298 299 300 300 300 301 301 301 301 301 302 302 302 302 302 301 300 300 300 300 299 298 297 297 297 297 296 296 296 295 295 295
298 300 293 293 283 281 284 285 292 291 293 294 294 295 295 295 296 297 297 298 299 300 299 300 301 300 299 299 299 298 298 299 298 299 298 299 298 297 297 296 296 296 295 295 295 294 294 293 294
294 292 292 295 290 285 283 288 292 292 294 294 295 295 295 295 295 295 295 296 297 297 298 298 298 298 298 298 297 297 297 297 297 298 297 297 296 296 295 295 295 294 294 294 294 293 293 293 293
295 292 294 291 285 285 284 289 292 292 292 296 295 295 295 295 294 294 294 295 296 296 297 297 297 297 297 296 296 296 297 297 297 297 296 295 295 294 294 294 293 293 293 294 293 293 293 292 292
Wind_Speed
1 5 3 1 2 1 2 4 1 4 4 2 5 4 4 3 3 1 3 6 14 15 12 12 13 12 12 12 11 10 9 9 9 10 10 10 10 10 11 10 12 12 14 14 13 12 14 12 13
3 3 2 2 1 2 4 2 6 5 4 9 6 4 2 2 2 6 10 9 16 14 12 11 13 13 12 12 12 11 10 10 10 10 10 11 11 11 11 12 12 12 12 12 12 12 12 12 13
3 1 1 2 2 5 4 5 5 5 12 4 4 3 3 4 2 11 4 16 16 14 12 11 14 13 12 12 12 11 10 10 10 10 11 11 11 12 12 13 13 13 13 13 13 12 13 13 13
3 1 2 2 7 5 4 2 6 10 4 3 5 6 2 1 9 7 16 17 15 13 13 14 14 13 13 12 11 11 10 10 10 9 10 11 12 12 13 13 13 13 13 12 13 14 14 14 13
2 1 2 3 5 4 4 1 9 10 6 6 5 6 3 2 6 15 17 16 16 14 13 13 15 14 13 12 11 11 10 10 9 8 7 7 10 14 13 12 12 14 14 15 15 16 16 16 15
2 1 3 6 5 3 3 5 7 5 5 6 5 8 4 2 12 15 15 14 14 14 12 12 14 14 13 12 12 11 11 10 8 9 11 13 13 13 13 13 14 15 15 15 16 16 17 18 18
4 3 4 4 3 4 4 9 9 9 7 6 9 7 2 7 10 14 13 13 13 12 11 10 11 12 12 12 12 12 10 10 11 11 12 13 12 13 12 14 14 15 16 16 16 17 18 19 19
3 3 4 4 5 6 2 8 5 8 6 4 5 6 6 10 15 14 13 13 12 11 11 10 10 10 10 9 11 11 10 11 13 12 13 13 11 12 13 13 14 15 15 16 17 17 17 18 19
4 3 7 8 7 4 3 6 1 0 5 3 6 4 2 21 19 16 14 12 11 9 10 9 10 10 9 9 7 9 12 13 14 13 13 10 7 10 11 13 14 15 16 17 17 18 18 16 18
5 5 10 5 4 4 4 3 6 4 4 4 4 5 15 21 20 19 17 14 15 14 12 10 10 10 10 5 8 7 9 7 7 7 8 6 8 8 10 12 14 15 17 18 18 17 16 13 8
4 9 5 5 5 3 3 3 5 7 5 9 16 15 19 22 19 18 17 18 18 15 11 13 10 11 10 8 6 4 5 5 5 8 7 6 5 5 5 5 5 6 10 7 9 9 8 11 7
5 7 6 5 6 6 6 5 5 9 8 4 8 19 21 22 22 21 19 17 16 16 15 14 11 9 9 5 5 6 5 5 5 5 7 6 4 5 5 5 6 6 5 8 7 6 8 9 9
6 4 6 5 7 4 6 6 5 9 7 5 8 20 23 21 20 17 15 14 15 16 16 15 9 11 9 9 6 4 5 5 6 6 6 5 6 6 6 5 5 5 5 5 6 6 7 8 9
3 11 12 6 6 5 7 4 6 2 2 2 11 17 19 22 22 17 16 16 16 16 17 15 11 12 10 7 9 6 5 5 5 5 5 6 6 6 6 6 5 5 4 4 5 5 6 6 6
5 8 4 8 6 6 4 4 7 3 3 6 9 10 12 16 19 21 21 19 17 14 15 14 14 12 10 8 6 6 6 6 6 6 7 7 6 7 7 5 5 4 4 5 4 5 5 5 5
6 6 11 6 8 2 7 13 5 4 8 8 8 8 8 11 17 15 16 15 16 13 16 14 11 12 12 9 6 6 5 6 5 5 5 7 7 8 6 5 4 4 3 3 3 3 4 4 5
4 12 11 4 6 5 6 4 4 3 6 9 8 9 8 10 9 11 13 16 16 18 18 16 13 12 11 9 5 6 7 5 5 5 5 7 7 7 6 5 4 4 3 2 2 3 2 2 3
7 8 4 15 6 2 6 3 2 2 4 7 8 6 10 12 14 11 13 14 11 14 13 13 10 12 9 7 7 4 4 4 4 5 5 8 6 7 6 4 5 4 3 3 3 2 2 2 3
4 6 11 5 7 6 9 6 8 5 3 6 7 10 11 13 6 7 11 10 11 10 12 13 13 12 10 7 6 5 5 4 4 4 7 7 7 7 6 4 5 5 4 4 2 2 1 1 3
19 14 12 2 3 4 5 10 5 7 6 8 10 9 9 6 9 9 11 12 12 12 12 12 12 13 11 8 4 3 4 3 3 4 5 6 7 8 7 6 5 5 3 4 4 3 2 1 0
16 13 10 7 5 2 5 5 6 6 10 7 7 6 7 9 9 9 9 11 11 13 13 13 14 15 11 10 7 5 4 3 3 3 4 7 8 7 7 6 5 5 4 4 4 4 5 3 2
12 11 8 7 6 5 1 3 4 6 8 8 10 8 8 7 6 6 10 11 11 10 11 12 13 14 12 12 8 9 6 5 4 4 3 3 6 6 5 5 5 4 4 5 4 4 4 4 4
8 4 6 3 3 2 1 2 4 1 5 10 8 7 6 5 4 8 10 10 9 10 11 12 13 13 12 11 8 6 5 2 2 2 3 1 2 1 4 5 5 5 4 4 5 5 5 4 3
9 6 8 2 3 3 4 4 4 5 5 0 3 7 7 4 1 3 5 9 9 9 10 11 13 11 10 8 6 6 5 4 3 3 3 2 2 2 3 2 2 2 2 3 3 3 4 4 4
3 5 1 2 3 3 0 4 9 3 2 2 5 8 4 1 3 5 8 9 10 11 10 9 11 9 8 7 6 5 4 4 4 3 2 3 2 2 3 4 4 3 3 2 2 3 5 5 5
1 8 3 4 5 4 2 5 5 0 2 3 1 4 1 1 1 4 7 9 10 11 10 10 10 9 7 7 6 4 4 3 3 3 3 3 3 4 4 4 4 4 3 3 3 3 4 5 5
2 6 5 4 2 1 1 5 4 1 2 2 3 3 2 2 3 5 6 8 9 9 9 11 11 10 8 8 7 7 6 6 6 6 5 3 4 4 4 4 4 3 2 2 3 4 6 6 6
4 5 3 3 1 2 2 4 4 2 6 5 4 4 3 4 6 7 8 9 8 10 10 11 11 11 10 9 8 6 7 6 6 5 5 5 5 4 4 3 2 2 3 4 4 5 6 7 7
2 1 5 5 3 1 3 3 4 3 5 9 6 4 4 6 7 8 9 9 10 10 11 11 11 11 9 8 7 7 6 6 5 5 4 4 4 3 2 1 3 4 5 6 6 7 8 10 10
4 1 3 3 3 2 1 5 1 2 3 8 8 6 6 7 8 9 9 10 10 10 10 10 8 8 7 6 6 6 6 5 4 4 4 3 1 0 2 3 5 6 7 7 8 10 10 11 12
Wind_Direction
43 132 117 50 225 41 248 236 213 169 184 135 110 171 181 78 166 118 120 157 149 150 156 151 145 141 136 127 120 117 114 104 100 96 94 92 88 84 73 68 56 68 61 58 54 50 50 46 46
124 127 79 106 165 233 255 217 205 182 127 123 99 96 103 100 82 120 138 161 150 147 146 147 147 141 135 131 127 125 120 113 107 103 101 101 97 93 87 83 79 74 73 70 70 67 62 55 48
143 10 142 138 156 212 241 214 191 147 151 146 118 41 121 136 87 150 132 148 147 145 146 148 145 140 141 139 134 130 126 121 116 109 108 108 106 102 97 91 84 80 78 77 72 66 61 57 53
159 89 84 208 224 244 226 232 175 141 206 237 129 104 114 306 155 165 147 149 149 149 150 143 147 145 146 144 141 134 132 129 123 120 120 123 121 110 97 89 86 81 75 77 74 66 60 57 55
58 92 170 232 243 247 234 272 170 163 159 157 176 153 93 100 131 145 152 155 153 153 153 149 153 151 151 149 145 138 136 133 133 119 108 112 109 105 92 86 88 82 73 73 73 70 64 59 56
108 147 185 223 235 239 248 160 166 204 157 139 119 133 134 123 147 155 153 154 154 154 157 155 157 157 157 155 152 148 140 144 115 94 101 108 102 95 98 91 87 80 76 77 74 70 65 60 57
162 169 215 218 237 259 228 159 190 181 157 190 146 135 113 178 162 152 151 151 155 159 160 159 159 162 164 161 157 154 153 129 122 114 102 98 103 99 99 89 85 83 81 77 72 69 66 62 59
146 181 197 217 202 248 210 175 161 178 186 93 167 173 178 181 157 148 149 152 156 164 166 161 163 165 165 166 158 168 142 137 119 103 108 97 103 103 90 91 88 85 81 78 74 67 64 62 59
140 201 215 210 184 219 145 184 157 11 129 197 175 154 52 144 149 149 152 155 159 169 172 168 168 167 168 171 166 151 136 118 116 110 104 95 94 96 99 90 91 88 84 79 74 69 65 62 56
196 210 209 202 212 205 157 193 163 177 156 212 165 72 133 146 160 162 167 167 174 176 179 179 174 171 176 144 141 128 118 115 115 116 115 106 105 98 96 93 91 87 85 78 74 70 63 59 54
194 233 206 221 204 169 141 165 211 151 226 215 196 154 155 160 168 172 176 178 178 178 178 182 177 178 170 157 147 135 129 125 123 123 123 117 103 95 91 96 89 87 80 74 71 63 56 60 53
239 224 201 223 196 165 180 145 202 200 208 322 216 160 159 171 176 179 180 180 175 179 182 182 176 178 172 144 150 135 141 140 141 140 135 131 117 111 107 100 96 86 76 80 68 67 67 64 57
239 250 226 218 186 206 149 196 204 225 236 328 156 163 173 179 181 181 181 180 176 179 182 183 171 183 173 159 144 144 156 159 149 148 148 141 129 124 119 110 102 100 102 92 86 73 63 54 49
287 220 235 220 208 212 198 163 156 212 197 127 163 189 181 181 181 175 181 181 185 180 181 179 179 185 170 158 154 158 158 155 151 148 155 149 139 137 129 123 110 99 88 81 74 67 61 55 44
271 266 262 213 197 212 181 205 205 131 150 176 199 193 193 187 178 188 185 185 185 185 176 184 185 176 159 152 162 154 152 157 157 155 157 154 149 143 137 130 124 115 98 93 91 76 59 50 38
231 223 235 196 162 198 197 235 199 144 151 156 161 177 179 196 198 193 190 186 184 173 186 182 174 170 160 165 159 147 153 154 156 153 159 160 157 150 141 137 134 130 115 103 77 57 60 42 26
257 229 224 237 208 139 191 215 157 146 171 164 178 178 198 203 206 206 194 198 188 179 177 174 173 169 160 157 148 147 153 156 156 159 168 169 163 160 151 153 147 148 129 105 102 81 56 40 18
246 223 212 215 184 182 174 221 185 128 190 189 198 195 211 215 213 220 175 197 187 178 179 168 159 156 149 135 130 116 138 142 157 171 178 175 173 171 168 162 158 164 161 163 166 155 95 41 5
243 271 206 196 190 159 196 190 200 197 228 217 217 211 213 217 195 171 178 180 172 159 162 163 163 153 152 145 149 155 171 164 174 185 186 185 183 183 182 178 182 188 200 195 178 132 147 108 10
239 263 235 103 153 188 171 224 215 200 220 221 221 215 203 190 192 195 186 181 177 183 166 166 166 161 169 158 144 145 152 170 173 183 196 199 196 196 196 197 198 200 200 195 193 191 171 162 319
231 231 261 204 133 72 128 250 220 225 229 225 226 221 223 216 206 196 193 195 179 179 173 172 166 169 165 154 129 104 104 103 162 196 212 213 210 209 213 209 211 209 214 216 206 206 209 218 163
216 198 217 150 158 178 296 244 236 219 231 213 212 213 219 219 228 204 190 197 188 172 164 160 164 171 166 162 158 163 173 170 195 199 206 205 215 224 229 236 229 225 212 216 211 202 210 203 210
232 123 131 29 80 134 98 208 263 186 244 240 205 199 191 173 205 205 190 182 175 157 160 161 167 166 167 174 177 169 161 122 96 162 184 144 96 203 224 221 214 216 213 222 213 194 205 212 231
147 81 43 70 144 215 211 209 245 200 212 187 212 191 178 171 174 164 156 149 150 150 154 158 163 161 161 164 158 163 164 162 174 160 158 130 107 83 72 105 165 176 188 192 188 192 210 223 236
71 119 358 154 187 210 17 191 249 193 196 231 223 190 182 192 171 155 157 156 149 153 151 147 149 143 146 156 161 158 178 192 201 173 153 153 139 122 106 110 118 113 109 120 157 207 224 227 238
126 116 196 156 172 179 111 212 251 344 318 304 97 139 127 6 141 167 161 160 153 147 142 136 138 130 131 132 131 133 142 133 115 137 141 132 135 135 134 121 117 120 140 166 201 240 257 256 257
155 125 231 109 66 185 199 267 255 110 89 88 114 118 106 86 118 135 137 140 131 128 125 128 123 109 110 113 113 110 117 125 130 129 123 115 113 127 123 128 143 167 207 251 259 271 276 277 276
197 157 144 19 223 239 289 276 257 208 208 179 181 164 121 104 106 106 108 111 106 108 107 109 112 116 114 109 113 119 120 114 110 116 123 131 130 133 154 174 207 253 279 282 276 274 272 271 271
22 45 56 97 95 60 339 283 209 222 207 187 187 169 140 117 111 107 105 104 107 107 109 110 110 113 115 122 120 111 108 118 127 126 128 137 155 179 205 258 290 282 282 284 276 271 271 270 274
285 184 124 121 180 83 313 283 98 302 260 180 173 156 129 118 115 115 116 116 114 110 107 107 111 111 106 101 110 117 123 115 111 131 156 175 212 267 284 274 278 286 284 282 277 279 280 278 277